Location: Casco Millpond
(44.5581°N, 87.6111°W)
Time: 22:42:58
(UTC+00:00)

SJ-12 - Pass Details

Date: 16 January 2026
Orbit: 515 x 525 km, 97.8° (Epoch: 13 February)

Event Time Altitude Azimuth Distance (km) Brightness Sun altitude
Rises 23:22:52 0° 160° (SSE) 2,646 7.3 -8.1°
Reaches altitude 10° 23:24:58 10° 157° (SSE) 1,764 6.4 -8.4°
Maximum altitude 23:28:44 68° 75° (ENE) 572 3.7 -9.1°
Drops below altitude 10° 23:32:34 10° 352° (N) 1,781 6.3 -9.7°
Sets 23:34:41 0° 350° (N) 2,675 7.2 -10.0°
